Time,TemperatureF,DewpointF,PressureIn,WindDirection,WindDirectionDegrees,WindSpeedMPH,WindSpeedGustMPH,Humidity,HourlyPrecipIn,Conditions,Clouds,dailyrainin,SoftwareType,DateUTC
2013-02-25 00:00:00,43.0,-99.9,-100.00,North,-999,-999.0,-999.0,-999,0.00,,,0.00,,2013-02-25 08:00:00,
2013-02-25 00:22:00,43.0,-99.9,-100.00,North,-999,-999.0,-999.0,-999,0.00,,,0.00,,2013-02-25 08:22:00,
2013-02-25 00:32:00,43.0,-99.9,-100.00,North,-999,-999.0,-999.0,-999,0.00,,,0.00,,2013-02-25 08:32:00,
2013-02-25 00:42:00,43.0,-99.9,-100.00,North,-999,-999.0,-999.0,-999,0.00,,,0.00,,2013-02-25 08:42:00,
2013-02-25 00:52:00,43.0,-99.9,-100.00,North,-999,-999.0,-999.0,-999,0.00,,,0.00,,2013-02-25 08:52:00,
2013-02-25 01:00:00,41.0,-99.9,-100.00,North,-999,-999.0,-999.0,-999,0.00,,,0.00,,2013-02-25 09:00:00,
2013-02-25 01:22:00,41.0,-99.9,-100.00,North,-999,-999.0,-999.0,-999,0.00,,,0.00,,2013-02-25 09:22:00,
2013-02-25 01:32:00,41.0,-99.9,-100.00,North,-999,-999.0,-999.0,-999,0.00,,,0.00,,2013-02-25 09:32:00,
2013-02-25 01:42:00,41.0,-99.9,-100.00,North,-999,-999.0,-999.0,-999,0.00,,,0.00,,2013-02-25 09:42:00,
2013-02-25 01:52:00,41.0,-99.9,-100.00,North,-999,-999.0,-999.0,-999,0.00,,,0.00,,2013-02-25 09:52:00,
2013-02-25 02:00:00,40.0,-99.9,-100.00,North,-999,-999.0,-999.0,-999,0.02,,,0.02,,2013-02-25 10:00:00,
2013-02-25 02:22:00,40.0,-99.9,-100.00,North,-999,-999.0,-999.0,-999,0.02,,,0.02,,2013-02-25 10:22:00,
2013-02-25 02:32:00,40.0,-99.9,-100.00,North,-999,-999.0,-999.0,-999,0.02,,,0.02,,2013-02-25 10:32:00,
2013-02-25 02:42:00,40.0,-99.9,-100.00,North,-999,-999.0,-999.0,-999,0.02,,,0.02,,2013-02-25 10:42:00,
2013-02-25 02:52:00,40.0,-99.9,-100.00,North,-999,-999.0,-999.0,-999,0.02,,,0.02,,2013-02-25 10:52:00,
2013-02-25 03:00:00,40.0,-99.9,-100.00,North,-999,-999.0,-999.0,-999,0.06,,,0.08,,2013-02-25 11:00:00,
2013-02-25 03:22:00,40.0,-99.9,-100.00,North,-999,-999.0,-999.0,-999,0.06,,,0.08,,2013-02-25 11:22:00,
2013-02-25 03:32:00,40.0,-99.9,-100.00,North,-999,-999.0,-999.0,-999,0.06,,,0.08,,2013-02-25 11:32:00,
2013-02-25 03:42:00,40.0,-99.9,-100.00,North,-999,-999.0,-999.0,-999,0.06,,,0.08,,2013-02-25 11:42:00,
2013-02-25 03:52:00,40.0,-99.9,-100.00,North,-999,-999.0,-999.0,-999,0.06,,,0.08,,2013-02-25 11:52:00,
2013-02-25 04:00:00,38.0,-99.9,-100.00,North,-999,-999.0,-999.0,-999,0.03,,,0.11,,2013-02-25 12:00:00,
2013-02-25 04:22:00,38.0,-99.9,-100.00,North,-999,-999.0,-999.0,-999,0.03,,,0.11,,2013-02-25 12:22:00,
2013-02-25 04:32:00,38.0,-99.9,-100.00,North,-999,-999.0,-999.0,-999,0.03,,,0.11,,2013-02-25 12:32:00,
2013-02-25 04:43:00,38.0,-99.9,-100.00,North,-999,-999.0,-999.0,-999,0.03,,,0.11,,2013-02-25 12:43:00,
2013-02-25 04:57:00,38.0,-99.9,-100.00,North,-999,-999.0,-999.0,-999,0.03,,,0.11,,2013-02-25 12:57:00,
2013-02-25 05:00:00,38.0,-99.9,-100.00,North,-999,-999.0,-999.0,-999,0.01,,,0.12,,2013-02-25 13:00:00,
2013-02-25 05:23:00,38.0,-99.9,-100.00,North,-999,-999.0,-999.0,-999,0.01,,,0.12,,2013-02-25 13:23:00,
2013-02-25 05:32:00,38.0,-99.9,-100.00,North,-999,-999.0,-999.0,-999,0.01,,,0.12,,2013-02-25 13:32:00,
2013-02-25 05:42:00,38.0,-99.9,-100.00,North,-999,-999.0,-999.0,-999,0.01,,,0.12,,2013-02-25 13:42:00,
2013-02-25 05:53:00,38.0,-99.9,-100.00,North,-999,-999.0,-999.0,-999,0.01,,,0.12,,2013-02-25 13:53:00,
2013-02-25 06:00:00,37.0,-99.9,-100.00,North,-999,-999.0,-999.0,-999,0.01,,,0.13,,2013-02-25 14:00:00,
2013-02-25 06:22:00,37.0,-99.9,-100.00,North,-999,-999.0,-999.0,-999,0.01,,,0.13,,2013-02-25 14:22:00,
2013-02-25 06:32:00,37.0,-99.9,-100.00,North,-999,-999.0,-999.0,-999,0.01,,,0.13,,2013-02-25 14:32:00,
2013-02-25 06:42:00,37.0,-99.9,-100.00,North,-999,-999.0,-999.0,-999,0.01,,,0.13,,2013-02-25 14:42:00,
2013-02-25 06:52:00,37.0,-99.9,-100.00,North,-999,-999.0,-999.0,-999,0.01,,,0.13,,2013-02-25 14:52:00,
2013-02-25 07:00:00,37.0,-99.9,-100.00,North,-999,-999.0,-999.0,-999,0.02,,,0.15,,2013-02-25 15:00:00,
2013-02-25 07:22:00,37.0,-99.9,-100.00,North,-999,-999.0,-999.0,-999,0.02,,,0.15,,2013-02-25 15:22:00,
2013-02-25 07:33:00,37.0,-99.9,-100.00,North,-999,-999.0,-999.0,-999,0.02,,,0.15,,2013-02-25 15:33:00,
2013-02-25 07:42:00,37.0,-99.9,-100.00,North,-999,-999.0,-999.0,-999,0.02,,,0.15,,2013-02-25 15:42:00,
2013-02-25 07:52:00,37.0,-99.9,-100.00,North,-999,-999.0,-999.0,-999,0.02,,,0.15,,2013-02-25 15:52:00,
2013-02-25 08:00:00,36.0,-99.9,-100.00,North,-999,-999.0,-999.0,-999,0.02,,,0.17,,2013-02-25 16:00:00,
2013-02-25 08:22:00,36.0,-99.9,-100.00,North,-999,-999.0,-999.0,-999,0.02,,,0.17,,2013-02-25 16:22:00,
2013-02-25 08:32:00,36.0,-99.9,-100.00,North,-999,-999.0,-999.0,-999,0.02,,,0.17,,2013-02-25 16:32:00,
2013-02-25 08:42:00,36.0,-99.9,-100.00,North,-999,-999.0,-999.0,-999,0.02,,,0.17,,2013-02-25 16:42:00,
2013-02-25 08:52:00,36.0,-99.9,-100.00,North,-999,-999.0,-999.0,-999,0.02,,,0.17,,2013-02-25 16:52:00,
2013-02-25 09:00:00,36.0,-99.9,-100.00,North,-999,-999.0,-999.0,-999,0.03,,,0.20,,2013-02-25 17:00:00,
2013-02-25 09:22:00,36.0,-99.9,-100.00,North,-999,-999.0,-999.0,-999,0.03,,,0.20,,2013-02-25 17:22:00,
2013-02-25 09:32:00,36.0,-99.9,-100.00,North,-999,-999.0,-999.0,-999,0.03,,,0.20,,2013-02-25 17:32:00,
2013-02-25 09:42:00,36.0,-99.9,-100.00,North,-999,-999.0,-999.0,-999,0.03,,,0.20,,2013-02-25 17:42:00,
2013-02-25 09:52:00,36.0,-99.9,-100.00,North,-999,-999.0,-999.0,-999,0.03,,,0.20,,2013-02-25 17:52:00,
2013-02-25 10:00:00,37.0,-99.9,-100.00,North,-999,-999.0,-999.0,-999,0.02,,,0.22,,2013-02-25 18:00:00,
2013-02-25 10:22:00,37.0,-99.9,-100.00,North,-999,-999.0,-999.0,-999,0.02,,,0.22,,2013-02-25 18:22:00,
2013-02-25 10:33:00,37.0,-99.9,-100.00,North,-999,-999.0,-999.0,-999,0.02,,,0.22,,2013-02-25 18:33:00,
2013-02-25 10:42:00,37.0,-99.9,-100.00,North,-999,-999.0,-999.0,-999,0.02,,,0.22,,2013-02-25 18:42:00,
2013-02-25 10:52:00,37.0,-99.9,-100.00,North,-999,-999.0,-999.0,-999,0.02,,,0.22,,2013-02-25 18:52:00,
2013-02-25 11:00:00,38.0,-99.9,-100.00,North,-999,-999.0,-999.0,-999,0.01,,,0.23,,2013-02-25 19:00:00,
2013-02-25 11:22:00,38.0,-99.9,-100.00,North,-999,-999.0,-999.0,-999,0.01,,,0.23,,2013-02-25 19:22:00,
2013-02-25 11:32:00,38.0,-99.9,-100.00,North,-999,-999.0,-999.0,-999,0.01,,,0.23,,2013-02-25 19:32:00,
2013-02-25 11:42:00,38.0,-99.9,-100.00,North,-999,-999.0,-999.0,-999,0.01,,,0.23,,2013-02-25 19:42:00,
2013-02-25 11:52:00,38.0,-99.9,-100.00,North,-999,-999.0,-999.0,-999,0.01,,,0.23,,2013-02-25 19:52:00,
2013-02-25 12:00:00,40.0,-99.9,-100.00,North,-999,-999.0,-999.0,-999,0.00,,,0.23,,2013-02-25 20:00:00,
2013-02-25 12:22:00,40.0,-99.9,-100.00,North,-999,-999.0,-999.0,-999,0.00,,,0.23,,2013-02-25 20:22:00,
2013-02-25 12:32:00,40.0,-99.9,-100.00,North,-999,-999.0,-999.0,-999,0.00,,,0.23,,2013-02-25 20:32:00,
2013-02-25 12:42:00,40.0,-99.9,-100.00,North,-999,-999.0,-999.0,-999,0.00,,,0.23,,2013-02-25 20:42:00,
2013-02-25 12:52:00,40.0,-99.9,-100.00,North,-999,-999.0,-999.0,-999,0.00,,,0.23,,2013-02-25 20:52:00,
2013-02-25 13:00:00,40.0,-99.9,-100.00,North,-999,-999.0,-999.0,-999,0.00,,,0.23,,2013-02-25 21:00:00,
2013-02-25 13:22:00,40.0,-99.9,-100.00,North,-999,-999.0,-999.0,-999,0.00,,,0.23,,2013-02-25 21:22:00,
2013-02-25 13:32:00,40.0,-99.9,-100.00,North,-999,-999.0,-999.0,-999,0.00,,,0.23,,2013-02-25 21:32:00,
2013-02-25 13:42:00,40.0,-99.9,-100.00,North,-999,-999.0,-999.0,-999,0.00,,,0.23,,2013-02-25 21:42:00,
2013-02-25 13:52:00,40.0,-99.9,-100.00,North,-999,-999.0,-999.0,-999,0.00,,,0.23,,2013-02-25 21:52:00,
2013-02-25 14:00:00,42.0,-99.9,-100.00,North,-999,-999.0,-999.0,-999,0.00,,,0.23,,2013-02-25 22:00:00,
2013-02-25 14:22:00,42.0,-99.9,-100.00,North,-999,-999.0,-999.0,-999,0.00,,,0.23,,2013-02-25 22:22:00,
2013-02-25 14:32:00,42.0,-99.9,-100.00,North,-999,-999.0,-999.0,-999,0.00,,,0.23,,2013-02-25 22:32:00,
2013-02-25 14:42:00,42.0,-99.9,-100.00,North,-999,-999.0,-999.0,-999,0.00,,,0.23,,2013-02-25 22:42:00,
2013-02-25 14:52:00,42.0,-99.9,-100.00,North,-999,-999.0,-999.0,-999,0.00,,,0.23,,2013-02-25 22:52:00,
2013-02-25 15:00:00,42.0,-99.9,-100.00,North,-999,-999.0,-999.0,-999,0.00,,,0.23,,2013-02-25 23:00:00,
2013-02-25 15:22:00,42.0,-99.9,-100.00,North,-999,-999.0,-999.0,-999,0.00,,,0.23,,2013-02-25 23:22:00,
2013-02-25 15:32:00,42.0,-99.9,-100.00,North,-999,-999.0,-999.0,-999,0.00,,,0.23,,2013-02-25 23:32:00,
2013-02-25 15:42:00,42.0,-99.9,-100.00,North,-999,-999.0,-999.0,-999,0.00,,,0.23,,2013-02-25 23:42:00,
2013-02-25 15:52:00,42.0,-99.9,-100.00,North,-999,-999.0,-999.0,-999,0.00,,,0.23,,2013-02-25 23:52:00,
2013-02-25 16:00:00,41.0,-99.9,-100.00,North,-999,-999.0,-999.0,-999,0.00,,,0.23,,2013-02-26 00:00:00,
2013-02-25 16:22:00,41.0,-99.9,-100.00,North,-999,-999.0,-999.0,-999,0.00,,,0.23,,2013-02-26 00:22:00,
2013-02-25 16:32:00,41.0,-99.9,-100.00,North,-999,-999.0,-999.0,-999,0.00,,,0.23,,2013-02-26 00:32:00,
2013-02-25 16:42:00,41.0,-99.9,-100.00,North,-999,-999.0,-999.0,-999,0.00,,,0.23,,2013-02-26 00:42:00,
2013-02-25 16:52:00,41.0,-99.9,-100.00,North,-999,-999.0,-999.0,-999,0.00,,,0.23,,2013-02-26 00:52:00,
2013-02-25 17:00:00,40.0,-99.9,-100.00,North,-999,-999.0,-999.0,-999,0.00,,,0.23,,2013-02-26 01:00:00,
2013-02-25 17:32:00,40.0,-99.9,-100.00,North,-999,-999.0,-999.0,-999,0.00,,,0.23,,2013-02-26 01:32:00,
2013-02-25 17:42:00,40.0,-99.9,-100.00,North,-999,-999.0,-999.0,-999,0.00,,,0.23,,2013-02-26 01:42:00,
2013-02-25 17:52:00,40.0,-99.9,-100.00,North,-999,-999.0,-999.0,-999,0.00,,,0.23,,2013-02-26 01:52:00,
2013-02-25 18:00:00,38.0,-99.9,-100.00,North,-999,-999.0,-999.0,-999,0.00,,,0.23,,2013-02-26 02:00:00,
2013-02-25 18:22:00,38.0,-99.9,-100.00,North,-999,-999.0,-999.0,-999,0.00,,,0.23,,2013-02-26 02:22:00,
2013-02-25 18:32:00,38.0,-99.9,-100.00,North,-999,-999.0,-999.0,-999,0.00,,,0.23,,2013-02-26 02:32:00,
2013-02-25 18:42:00,38.0,-99.9,-100.00,North,-999,-999.0,-999.0,-999,0.00,,,0.23,,2013-02-26 02:42:00,
2013-02-25 18:52:00,38.0,-99.9,-100.00,North,-999,-999.0,-999.0,-999,0.00,,,0.23,,2013-02-26 02:52:00,
2013-02-25 19:00:00,38.0,-99.9,-100.00,North,-999,-999.0,-999.0,-999,0.00,,,0.23,,2013-02-26 03:00:00,
2013-02-25 19:32:00,38.0,-99.9,-100.00,North,-999,-999.0,-999.0,-999,0.00,,,0.23,,2013-02-26 03:32:00,
2013-02-25 19:42:00,38.0,-99.9,-100.00,North,-999,-999.0,-999.0,-999,0.00,,,0.23,,2013-02-26 03:42:00,
2013-02-25 19:52:00,38.0,-99.9,-100.00,North,-999,-999.0,-999.0,-999,0.00,,,0.23,,2013-02-26 03:52:00,
2013-02-25 20:00:00,38.0,-99.9,-100.00,North,-999,-999.0,-999.0,-999,0.00,,,0.23,,2013-02-26 04:00:00,
2013-02-25 20:22:00,38.0,-99.9,-100.00,North,-999,-999.0,-999.0,-999,0.00,,,0.23,,2013-02-26 04:22:00,
2013-02-25 20:32:00,38.0,-99.9,-100.00,North,-999,-999.0,-999.0,-999,0.00,,,0.23,,2013-02-26 04:32:00,
2013-02-25 20:43:00,38.0,-99.9,-100.00,North,-999,-999.0,-999.0,-999,0.00,,,0.23,,2013-02-26 04:43:00,
2013-02-25 20:52:00,38.0,-99.9,-100.00,North,-999,-999.0,-999.0,-999,0.00,,,0.23,,2013-02-26 04:52:00,
2013-02-25 21:00:00,37.0,-99.9,-100.00,North,-999,-999.0,-999.0,-999,0.00,,,0.23,,2013-02-26 05:00:00,
2013-02-25 21:22:00,37.0,-99.9,-100.00,North,-999,-999.0,-999.0,-999,0.00,,,0.23,,2013-02-26 05:22:00,
2013-02-25 21:32:00,37.0,-99.9,-100.00,North,-999,-999.0,-999.0,-999,0.00,,,0.23,,2013-02-26 05:32:00,
2013-02-25 21:43:00,37.0,-99.9,-100.00,North,-999,-999.0,-999.0,-999,0.00,,,0.23,,2013-02-26 05:43:00,
2013-02-25 21:52:00,37.0,-99.9,-100.00,North,-999,-999.0,-999.0,-999,0.00,,,0.23,,2013-02-26 05:52:00,
2013-02-25 22:00:00,37.0,-99.9,-100.00,North,-999,-999.0,-999.0,-999,0.00,,,0.23,,2013-02-26 06:00:00,
2013-02-25 22:22:00,37.0,-99.9,-100.00,North,-999,-999.0,-999.0,-999,0.00,,,0.23,,2013-02-26 06:22:00,
2013-02-25 22:32:00,37.0,-99.9,-100.00,North,-999,-999.0,-999.0,-999,0.00,,,0.23,,2013-02-26 06:32:00,
2013-02-25 22:42:00,37.0,-99.9,-100.00,North,-999,-999.0,-999.0,-999,0.00,,,0.23,,2013-02-26 06:42:00,
2013-02-25 22:52:00,37.0,-99.9,-100.00,North,-999,-999.0,-999.0,-999,0.00,,,0.23,,2013-02-26 06:52:00,
2013-02-25 23:00:00,37.0,-99.9,-100.00,North,-999,-999.0,-999.0,-999,0.00,,,0.23,,2013-02-26 07:00:00,
2013-02-25 23:32:00,37.0,-99.9,-100.00,North,-999,-999.0,-999.0,-999,0.00,,,0.23,,2013-02-26 07:32:00,
2013-02-25 23:42:00,37.0,-99.9,-100.00,North,-999,-999.0,-999.0,-999,0.00,,,0.23,,2013-02-26 07:42:00,
2013-02-25 23:52:00,37.0,-99.9,-100.00,North,-999,-999.0,-999.0,-999,0.00,,,0.23,,2013-02-26 07:52:00,